Torna al catalogo

FENGYUN 1C DEB

AttivoSSO
NORAD 33711·DEBRIS·🇨🇳 China

Lanciato May 10, 1999 da Taiyuan Satellite Launch Center

Loading…

Prossimi Passaggi (prossime 24 ore)

TLE

AggiornatoSource: Space-Track

Epoca: Sep 13, 2026, 21:56 UTC

1 33711U 99025DGY 26256.91413935  .00000969  00000-0  64498-3 0  9994
2 33711  99.1607 316.5733 0096856  10.9552 165.5771 14.01446261957858

Traccia FENGYUN 1C DEB in tempo reale con AllMySat

Download on the App Store